Location: Antioch Church
(34.9543°N, 88.5145°W)
Time: 17:52:15
(UTC+00:00)

Cosmos 2266 Rocket - Pass Details

Date: 11 December 2019
Orbit: 933 x 1009 km, 82.9° (Epoch: 24 January)

Event Time Altitude Azimuth Distance (km) Brightness Sun altitude
Rises 00:31:41 0° 170° (S) 3,717 7.1 -21.7°
Reaches altitude 10° 00:34:16 10° 166° (SSE) 2,775 6.4 -22.2°
Maximum altitude 00:40:26 53° 91° (E) 1,224 4.1 -23.4°
Enters shadow 00:41:44 46° 54° (NE) 1,333 4.3 -23.7°
